Wind_Speed
13 12 12 13 13 14 14 14 14 13 14 14 14 14 14 14 14 13 13 13 13 13 14 14 14 15 16 16 16 16 15 15 15 15 14 15 15 15 15 16 16 16 16
13 13 13 13 13 13 13 13 13 13 13 13 13 13 13 13 13 13 13 14 14 14 14 14 15 15 15 16 16 16 15 15 16 15 15 15 15 15 16 16 16 16 16
13 13 13 14 13 13 13 14 13 14 13 13 13 13 13 13 13 14 14 14 14 14 14 15 15 15 15 16 16 16 16 16 16 15 14 15 15 15 16 16 16 17 16
15 15 14 14 14 14 14 14 13 14 13 13 12 13 14 14 13 13 14 13 13 13 14 14 15 15 15 16 16 16 16 16 15 15 14 14 14 15 15 16 16 16 17
15 16 15 15 14 14 14 14 14 13 13 13 12 13 14 14 13 14 13 13 13 13 14 14 14 14 14 15 16 16 15 15 14 14 14 14 15 15 15 16 16 17 17
15 15 15 15 14 14 14 14 13 13 14 14 13 13 14 14 14 14 14 14 14 14 14 15 14 14 14 15 15 14 13 13 13 13 14 14 15 15 15 15 16 17 17
15 14 15 14 14 14 14 14 14 14 14 13 13 13 13 14 13 13 13 13 14 14 14 14 15 15 15 15 14 13 13 12 13 14 14 15 15 15 16 16 16 16 16
15 15 15 14 14 15 14 13 14 14 13 13 14 14 14 13 13 13 13 13 13 14 14 14 15 15 15 14 14 14 14 14 14 15 15 15 16 16 16 16 16 16 16
16 16 15 16 16 16 14 13 13 14 14 14 14 14 13 13 13 13 12 13 14 14 15 15 15 15 15 15 15 14 14 15 15 15 15 16 16 16 17 16 16 16 17
17 17 17 17 16 15 14 14 15 15 14 14 13 13 13 13 13 13 13 13 14 15 15 15 15 15 15 15 15 15 15 16 15 15 15 16 16 16 16 16 16 17 17
17 16 17 17 17 16 15 15 15 15 14 14 14 14 14 14 14 13 14 14 14 15 15 15 15 15 15 16 16 16 16 15 15 15 16 16 16 17 16 16 16 18 18
18 18 17 17 17 16 16 16 16 16 16 15 15 15 15 15 14 14 14 15 15 16 16 15 15 15 15 15 15 15 16 16 16 16 16 16 17 17 17 17 17 19 19
18 18 17 17 17 17 17 17 17 17 17 17 16 16 15 15 15 15 16 16 16 16 16 16 15 15 15 15 15 16 16 16 16 16 17 17 17 17 17 18 18 19 19
18 18 18 18 18 18 18 18 19 19 18 18 17 16 16 16 16 16 17 17 17 17 17 16 16 16 16 16 16 17 17 17 17 17 18 18 18 18 18 18 18 18 19
20 20 19 19 19 19 19 18 18 18 18 17 17 17 16 16 17 18 18 18 18 18 18 18 18 18 18 17 17 17 17 18 18 18 18 18 18 18 19 19 19 19 20
21 21 21 21 21 20 20 19 19 19 18 17 17 17 17 17 17 18 18 19 19 19 19 19 19 19 19 19 18 18 18 18 18 18 19 19 18 19 19 18 19 19 20
21 21 21 22 22 21 20 20 20 21 20 19 19 19 19 20 20 20 20 20 21 20 20 20 19 20 19 19 19 18 18 18 18 18 18 18 18 19 19 19 19 19 20
22 22 22 22 22 22 21 21 21 21 21 21 21 21 22 21 21 21 22 22 22 21 20 20 19 19 19 19 19 18 18 18 18 18 18 19 19 19 19 19 19 19 20
22 22 22 23 23 22 22 22 21 21 21 21 21 22 22 22 22 22 22 22 22 22 21 20 19 19 19 19 18 18 19 19 19 19 20 20 20 20 20 19 19 20 21
24 24 23 23 23 22 22 22 22 22 22 23 23 23 23 22 22 22 22 22 22 22 21 21 20 20 20 20 20 20 20 20 20 21 21 21 20 20 20 19 19 20 21
24 24 24 23 23 23 23 22 22 22 23 23 22 22 23 22 22 22 21 21 22 22 23 22 23 22 22 21 21 21 21 21 21 21 22 22 21 20 19 19 19 20 21
25 24 24 24 24 24 24 24 24 24 23 23 23 23 23 22 22 22 22 22 22 22 23 23 23 22 22 23 23 22 22 22 22 22 22 21 20 19 19 19 20 21 21
26 25 24 23 23 24 24 24 24 24 24 23 23 23 23 23 23 23 24 23 23 23 23 23 23 23 23 23 22 22 22 22 22 22 21 21 20 20 19 20 20 21 22
25 24 24 23 23 24 24 24 24 24 23 23 23 24 24 24 24 25 24 24 24 23 23 24 24 23 23 23 23 23 23 23 23 23 22 21 20 20 21 22 22 22 23
23 24 24 24 24 24 24 24 24 24 24 24 24 25 25 25 25 25 25 25 25 25 25 24 24 24 24 24 24 24 24 24 24 23 23 23 22 22 23 23 24 24 24
23 24 24 24 24 24 24 24 24 24 24 24 24 24 25 25 25 25 25 25 24 25 25 25 25 25 25 26 26 25 25 24 24 24 24 24 23 23 24 24 25 25 24
Wind_Direction
277 279 282 285 286 286 287 286 285 283 282 281 279 278 279 281 282 283 284 282 278 278 278 278 279 280 281 282 283 282 282 282 280 279 283 286 285 283 282 282 281 282 284
279 281 284 286 287 287 287 287 284 285 284 281 279 276 276 279 283 285 288 283 278 276 276 276 278 280 282 282 284 283 282 283 283 283 283 284 285 284 283 282 281 282 282
280 280 281 284 285 286 286 289 286 285 283 283 279 279 280 280 281 285 287 284 279 276 274 275 276 279 282 283 284 284 282 283 284 282 281 282 284 284 282 282 282 282 282
280 278 279 280 282 284 287 290 289 289 287 284 284 284 285 283 282 285 287 285 278 276 275 276 276 279 281 283 285 286 284 283 281 280 281 281 283 284 284 283 283 283 283
279 277 276 276 278 281 283 287 286 288 288 286 283 284 285 283 283 286 286 285 281 279 279 278 277 280 282 284 287 289 285 281 279 278 281 284 285 285 285 285 284 284 286
277 275 273 274 275 278 279 284 284 283 285 286 286 284 284 283 283 284 283 284 282 281 282 280 278 277 281 285 288 289 284 280 279 279 283 287 288 287 284 285 288 286 287
275 274 274 273 275 276 276 278 281 280 280 282 286 286 286 286 285 283 285 285 282 282 282 279 279 280 282 286 287 287 283 285 282 281 284 286 288 287 283 283 287 290 289
274 274 271 272 274 273 274 278 281 279 279 283 286 287 287 287 287 285 283 284 282 282 280 280 282 283 283 284 284 285 284 283 284 281 282 286 289 286 283 284 286 289 290
270 272 272 272 273 274 273 277 282 284 282 284 284 282 283 288 289 288 286 284 282 281 284 283 284 283 283 284 283 284 283 284 284 282 283 286 289 286 284 284 285 289 291
270 269 271 272 273 272 273 276 281 282 283 283 280 278 280 285 287 287 286 287 285 284 284 284 284 282 282 282 282 283 283 283 284 286 287 288 289 286 283 283 285 290 291
274 272 272 271 270 268 270 275 278 281 282 279 277 277 278 281 284 285 286 285 287 287 286 285 283 280 280 281 283 284 284 284 286 287 287 287 288 287 284 284 286 292 293
277 274 272 270 268 266 269 272 274 277 279 278 278 280 281 281 281 282 284 286 288 289 288 287 284 281 282 284 285 287 288 288 287 286 286 286 287 286 283 283 288 293 296
276 275 272 269 268 269 269 270 272 276 276 278 280 281 282 282 282 282 283 284 285 286 287 287 286 283 283 284 285 288 290 290 289 285 286 288 288 287 285 285 289 294 296
271 270 270 271 271 273 272 271 271 273 274 278 277 278 280 282 281 281 282 282 282 282 283 284 284 283 283 284 287 289 290 290 290 289 288 287 289 290 287 287 289 294 297
269 267 267 270 272 273 273 273 274 276 276 275 274 275 277 278 279 279 280 280 280 280 280 280 282 285 286 285 287 289 290 289 287 288 289 289 288 288 288 287 291 293 298
268 267 266 268 269 270 271 272 274 276 275 273 275 276 276 277 279 280 279 279 278 278 279 278 280 283 285 285 286 288 288 288 286 287 289 291 290 290 290 290 294 297 300
267 267 267 267 268 269 270 271 272 273 272 273 273 274 277 278 279 279 280 281 282 277 276 277 278 281 283 284 286 288 287 287 288 289 289 290 290 291 291 291 295 297 300
267 267 267 266 267 268 270 271 273 273 272 272 272 273 274 277 278 277 276 278 281 280 279 278 278 278 280 283 285 287 287 287 288 289 288 288 289 291 290 292 294 295 299
264 265 265 265 267 269 271 271 272 273 273 273 272 272 273 276 277 277 275 275 277 279 279 278 279 279 279 280 282 285 286 287 288 288 288 289 289 291 292 292 293 295 299
262 262 263 265 267 268 270 270 272 273 273 273 273 272 272 274 276 277 276 276 276 277 278 277 276 278 278 278 279 281 283 285 286 287 287 288 290 293 293 292 292 296 299
263 263 264 265 268 269 270 271 272 272 272 272 272 272 272 273 274 276 277 277 276 275 277 277 276 275 276 276 278 279 280 281 283 284 286 286 288 291 290 291 293 297 301
263 262 263 265 267 270 271 271 270 270 270 269 269 270 271 272 273 274 275 275 274 275 276 278 277 275 274 274 275 277 280 282 283 283 284 286 289 291 289 292 295 298 301
263 263 264 265 266 269 270 270 269 268 268 268 268 269 270 272 274 274 275 273 274 275 276 277 276 274 274 274 275 277 279 281 282 284 284 284 287 289 291 294 296 299 302
263 261 262 264 267 268 269 268 267 268 268 270 271 271 270 272 273 274 272 273 274 274 276 278 276 273 273 273 274 275 276 278 280 280 281 284 286 288 291 294 296 298 301
264 262 262 264 265 267 268 267 266 267 269 270 272 272 271 273 275 275 274 274 273 273 274 276 274 272 272 273 274 276 277 278 279 278 279 280 284 288 291 293 294 296 299
264 264 264 264 265 265 265 263 264 266 266 268 270 271 272 273 274 274 274 275 275 274 273 275 274 271 271 273 274 275 276 277 278 279 279 280 283 287 289 290 291 293 295
Height
5808 5808 5808 5808 5808 5808 5807 5807 5807 5806 5806 5806 5806 5805 5805 5805 5804 5804 5804 5803 5803 5803 5803 5803 5803 5802 5802 5802 5802 5802 5802 5802 5802 5802 5801 5800 5800 5800 5799 5799 5799 5798 5798
5805 5805 5805 5805 5804 5804 5804 5804 5803 5803 5802 5802 5802 5802 5801 5801 5801 5800 5800 5799 5799 5799 5799 5799 5799 5798 5798 5798 5798 5798 5798 5797 5797 5797 5797 5796 5796 5795 5795 5794 5794 5794 5793
5802 5802 5802 5801 5801 5801 5801 5800 5799 5799 5799 5799 5799 5798 5798 5797 5797 5797 5796 5795 5795 5795 5795 5795 5795 5794 5794 5794 5794 5793 5793 5793 5793 5792 5792 5792 5791 5791 5790 5790 5789 5789 5789
5799 5799 5799 5798 5798 5798 5797 5797 5796 5796 5796 5795 5795 5795 5794 5794 5793 5792 5792 5791 5790 5791 5791 5791 5791 5790 5790 5790 5789 5789 5789 5788 5788 5788 5788 5787 5787 5786 5786 5785 5785 5784 5784
5795 5795 5795 5795 5795 5795 5794 5794 5793 5793 5792 5792 5791 5791 5790 5789 5789 5788 5787 5787 5787 5787 5787 5787 5787 5787 5786 5786 5785 5785 5784 5784 5783 5783 5783 5783 5782 5782 5781 5781 5780 5780 5779
5791 5791 5791 5791 5791 5791 5791 5791 5790 5789 5789 5788 5787 5787 5786 5785 5784 5783 5783 5782 5782 5783 5783 5783 5783 5783 5783 5782 5781 5781 5780 5780 5780 5780 5779 5779 5778 5778 5777 5776 5776 5775 5775
5787 5787 5787 5787 5787 5788 5787 5787 5786 5786 5785 5784 5784 5783 5782 5781 5780 5779 5779 5778 5779 5779 5779 5779 5779 5779 5778 5778 5777 5777 5777 5776 5776 5776 5775 5775 5774 5773 5772 5772 5771 5770 5770
5782 5783 5783 5783 5784 5784 5784 5783 5783 5782 5781 5781 5780 5779 5778 5777 5776 5776 5775 5775 5776 5776 5776 5775 5775 5775 5774 5774 5774 5773 5773 5772 5772 5771 5771 5770 5769 5768 5768 5767 5767 5766 5765
5778 5779 5779 5779 5780 5780 5780 5780 5779 5778 5777 5777 5776 5776 5775 5774 5773 5773 5772 5773 5773 5773 5772 5772 5772 5771 5771 5770 5770 5769 5769 5768 5767 5767 5766 5766 5765 5764 5763 5763 5762 5762 5761
5773 5774 5774 5775 5775 5776 5776 5776 5775 5774 5773 5773 5772 5772 5772 5771 5771 5770 5770 5770 5770 5770 5769 5768 5768 5767 5767 5766 5766 5765 5765 5764 5763 5763 5762 5762 5761 5760 5759 5758 5758 5757 5756
5769 5769 5770 5770 5771 5771 5771 5771 5771 5770 5770 5769 5768 5768 5768 5768 5768 5767 5767 5767 5766 5766 5765 5765 5764 5763 5763 5762 5762 5761 5760 5760 5759 5759 5758 5757 5756 5755 5755 5754 5753 5752 5751
5764 5765 5765 5766 5766 5766 5767 5767 5766 5766 5766 5765 5765 5764 5764 5764 5764 5764 5764 5763 5763 5762 5761 5761 5760 5759 5759 5758 5757 5757 5756 5756 5755 5754 5754 5753 5752 5751 5750 5749 5748 5747 5746
5760 5760 5760 5761 5761 5761 5762 5762 5762 5761 5761 5761 5761 5760 5760 5760 5760 5760 5759 5759 5759 5758 5757 5757 5756 5756 5755 5754 5753 5752 5751 5751 5750 5750 5749 5748 5747 5747 5746 5745 5743 5742 5741
5755 5756 5756 5756 5757 5757 5756 5757 5757 5756 5756 5756 5756 5756 5756 5755 5755 5755 5755 5754 5754 5754 5753 5753 5752 5751 5751 5750 5750 5748 5747 5746 5746 5745 5744 5743 5742 5741 5740 5739 5738 5737 5735
5750 5750 5751 5751 5751 5751 5751 5751 5751 5751 5751 5751 5751 5751 5751 5751 5750 5750 5750 5749 5749 5749 5748 5748 5748 5747 5746 5746 5745 5744 5743 5742 5741 5740 5739 5738 5737 5736 5735 5734 5732 5731 5729
5744 5744 5745 5745 5746 5746 5746 5746 5746 5746 5746 5746 5746 5745 5745 5745 5745 5745 5744 5744 5743 5743 5743 5742 5742 5742 5741 5740 5740 5739 5738 5737 5736 5735 5734 5733 5732 5731 5730 5729 5727 5725 5724
5737 5738 5738 5739 5739 5739 5740 5740 5740 5740 5740 5740 5740 5740 5740 5740 5739 5739 5738 5738 5737 5737 5737 5737 5737 5736 5736 5735 5734 5734 5733 5732 5731 5730 5729 5728 5727 5726 5725 5723 5722 5720 5718
5731 5731 5732 5732 5732 5733 5733 5733 5733 5733 5733 5733 5733 5733 5734 5733 5733 5733 5732 5732 5731 5731 5731 5731 5731 5731 5730 5730 5729 5728 5728 5727 5726 5725 5724 5723 5722 5721 5719 5718 5717 5715 5713
5724 5724 5725 5725 5726 5726 5726 5726 5726 5726 5726 5726 5727 5727 5727 5726 5726 5726 5726 5725 5725 5725 5725 5725 5725 5725 5725 5724 5724 5723 5722 5722 5721 5720 5719 5718 5717 5716 5714 5713 5711 5709 5708
5717 5717 5718 5718 5719 5719 5719 5719 5719 5719 5719 5719 5720 5720 5720 5720 5719 5719 5719 5719 5719 5719 5719 5719 5719 5719 5719 5718 5718 5717 5717 5716 5715 5714 5713 5712 5711 5710 5709 5707 5705 5704 5702
5709 5710 5710 5711 5711 5711 5711 5711 5712 5712 5712 5712 5712 5712 5712 5712 5712 5712 5712 5712 5712 5712 5712 5712 5712 5712 5712 5712 5712 5711 5711 5710 5709 5708 5707 5706 5705 5704 5703 5701 5700 5698 5696
5701 5702 5702 5703 5703 5704 5704 5704 5704 5705 5705 5705 5705 5705 5705 5705 5706 5706 5706 5705 5705 5705 5705 5705 5705 5705 5705 5705 5705 5705 5704 5703 5703 5702 5701 5700 5699 5698 5697 5695 5694 5692 5690
5693 5694 5694 5695 5696 5696 5696 5696 5696 5697 5697 5697 5698 5698 5698 5698 5698 5698 5698 5697 5698 5698 5698 5698 5697 5697 5697 5698 5698 5698 5697 5697 5696 5696 5695 5694 5693 5692 5691 5690 5688 5686 5684
5685 5685 5686 5687 5688 5688 5688 5689 5689 5689 5689 5690 5690 5690 5691 5691 5691 5691 5690 5690 5690 5690 5690 5690 5690 5690 5690 5690 5690 5690 5690 5689 5689 5689 5688 5687 5686 5685 5685 5683 5682 5680 5678
5677 5678 5678 5679 5679 5680 5680 5681 5681 5681 5682 5682 5682 5682 5683 5683 5683 5683 5682 5682 5682 5682 5682 5682 5682 5682 5682 5683 5683 5682 5682 5682 5681 5681 5681 5681 5680 5679 5678 5677 5675 5674 5672
5669 5670 5671 5671 5671 5672 5672 5673 5673 5673 5673 5674 5674 5674 5675 5675 5675 5675 5674 5674 5674 5674 5674 5674 5674 5675 5675 5675 5675 5674 5674 5674 5674 5674 5674 5673 5673 5672 5671 5670 5668 5666 5664